[[{"header":{"parameterUnit":"m.s-1","parameterCategory":1,"la1":30.2992,"la2":30.254,"lo1":-89.0895,"lo2":-89.0443,"dy":0.0025,"dx":0.0025,"nx":19,"ny":19,"refTime":"2026-05-05T09:00:00:Z","depth":0,"parameterNumber":2,"parameterNumberName":"U-component_of_WINDS"},"data":[0,0,0,1.032,1.0319,1.0292,1.0292,1.0266,1.0266,0,0,0,0,0,0,0,0,0,0,0,1.0334,1.0334,1.032,1.0319,1.0292,1.0292,1.0266,1.0266,0,0,0,0,0,0,0,0,0,0,0,1.0334,1.0334,1.0334,1.0319,1.0292,1.0292,1.0266,1.0283,0,0,0,0,0,0,0,0,0,0,1.0308,1.0327,1.0334,1.0334,1.0319,1.0292,1.0292,1.0284,1.0282,1.0282,0,1.0285,0,1.0275,1.0265,1.0265,0,0,0,1.0314,1.0329,1.0316,1.0334,1.0319,1.0292,1.0303,1.0283,1.0281,1.028,1.0284,1.0283,1.0274,1.0264,1.0264,1.0282,1.0282,0,0,1.0316,1.0332,1.0317,1.0315,1.0321,1.0304,1.0302,1.0281,1.0287,1.0284,1.0282,1.0274,1.0264,1.0264,1.0281,1.0282,0,0,0,1.0323,1.0334,1.0321,1.0316,1.0311,1.0303,1.0301,1.0288,1.0282,1.0282,1.0274,1.0264,1.0264,1.0281,1.0282,1.0312,0,0,0,1.0324,1.0338,1.0322,1.0332,1.0312,1.0299,1.0309,1.0284,1.0281,1.0274,1.0264,1.0264,1.0281,1.0281,1.0311,1.0324,0,0,0,1.0333,1.0339,1.0337,1.0333,1.0322,1.0299,1.0293,1.0283,1.0276,1.0265,1.0264,1.0281,1.0281,1.0309,1.0321,1.0332,0,0,0,1.0348,1.0366,1.0338,1.0355,1.0322,1.0319,1.0292,1.0289,1.0283,1.0264,1.0281,1.0282,1.0309,1.032,1.033,1.0343,1.035,0,0,1.038,1.037,1.0379,1.0353,1.0359,1.0322,1.0332,1.0311,1.0294,1.0286,1.0287,1.0311,1.0321,1.0332,1.0386,1.0392,0,0,0,1.0394,1.04,1.0398,1.0393,1.0377,1.0363,1.0339,1.033,1.0323,1.0294,1.0318,1.0323,1.0329,1.0334,1.0339,1.0341,1.0285,1.0285,1.0285,1.0462,1.044,1.0451,1.0425,1.042,1.0394,1.0387,1.0371,1.0351,1.0356,1.0354,1.039,1.0396,1.04,1.0403,1.0359,1.036,1.036,1.036,1.0505,1.0509,1.048,1.0481,1.0456,1.0456,1.043,1.0416,1.0411,1.039,1.0394,1.0373,1.0407,1.0408,1.0362,1.0361,1.0361,1.0361,1.0361,1.0546,1.0543,1.0533,1.0522,1.0515,1.0488,1.0484,1.0463,1.0442,1.0446,1.0439,1.0438,1.0434,1.0444,1.0444,1.0445,1.0445,1.0445,1.0445,1.0592,1.0579,1.0579,1.0562,1.0555,1.0542,1.0515,1.0506,1.0491,1.0475,1.0475,1.0453,1.0415,1.0405,1.0447,1.0446,1.0446,1.0446,1.0446,1.0641,1.0626,1.0626,1.0619,1.0596,1.059,1.0562,1.0546,1.0536,1.0535,1.0511,1.0487,1.0476,1.0472,1.0463,1.0517,1.0517,1.0517,1.0517,1.0674,1.0666,1.066,1.0649,1.0636,1.0611,1.0609,1.0587,1.0561,1.0553,1.0542,1.053,1.0527,1.0517,1.0512,1.0503,1.0566,1.0566,1.0566,1.0702,1.0692,1.0695,1.0671,1.0651,1.0634,1.0631,1.0618,1.0586,1.0568,1.0546,1.0544,1.0523,1.0518,1.0498,1.0491,1.0475,0,0]},{"header":{"parameterUnit":"m.s-1","parameterCategory":1,"la1":30.2992,"la2":30.254,"lo1":-89.0895,"lo2":-89.0443,"dy":0.0025,"dx":0.0025,"nx":19,"ny":19,"refTime":"2026-05-05T09:00:00:Z","depth":0,"parameterNumber":3,"parameterNumberName":"V-component_of_WINDS"},"data":[0,0,0,6.744,6.7444,6.7623,6.7624,6.7851,6.7854,0,0,0,0,0,0,0,0,0,0,0,6.7392,6.7394,6.744,6.7444,6.7623,6.7624,6.7851,6.7854,0,0,0,0,0,0,0,0,0,0,0,6.7391,6.7393,6.7396,6.7445,6.7623,6.7624,6.7851,6.7715,0,0,0,0,0,0,0,0,0,0,6.7541,6.7503,6.7393,6.7396,6.7446,6.7623,6.7624,6.7708,6.7723,6.7772,0,6.7821,0,6.7841,6.7869,6.787,0,0,0,6.7439,6.749,6.7534,6.7396,6.7448,6.7622,6.7541,6.7717,6.7734,6.7792,6.7824,6.7833,6.7845,6.7871,6.7872,6.8178,6.818,0,0,6.743,6.7426,6.7523,6.7546,6.7524,6.7535,6.7547,6.7727,6.776,6.7825,6.7838,6.7849,6.7872,6.7874,6.8177,6.8179,0,0,0,6.7405,6.7419,6.7459,6.7537,6.7569,6.7541,6.7554,6.7752,6.7765,6.784,6.7852,6.7874,6.7877,6.8175,6.8178,6.8257,0,0,0,6.7398,6.7405,6.7455,6.7454,6.7566,6.7664,6.7575,6.7753,6.7773,6.785,6.7874,6.7879,6.8173,6.8176,6.8251,6.8295,0,0,0,6.7379,6.7402,6.743,6.7454,6.7531,6.7661,6.7685,6.7757,6.7781,6.787,6.7879,6.8172,6.8176,6.8246,6.8286,6.8373,0,0,0,6.7355,6.7498,6.7432,6.7594,6.753,6.7711,6.7684,6.7818,6.7904,6.7875,6.8174,6.8177,6.8244,6.828,6.8367,6.8446,6.8479,0,0,6.7533,6.7519,6.7615,6.7561,6.7754,6.7684,6.7886,6.7967,6.7976,6.8109,6.8117,6.8253,6.8285,6.8372,6.8666,6.8692,0,0,0,6.767,6.7738,6.779,6.7874,6.7941,6.8,6.8051,6.808,6.8194,6.8046,6.8309,6.8328,6.8379,6.8416,6.8439,6.8481,6.8195,6.8195,6.8194,6.7915,6.7922,6.808,6.8108,6.8188,6.8239,6.8303,6.835,6.8332,6.8394,6.8433,6.8611,6.8655,6.8672,6.8716,6.8476,6.8476,6.8476,6.8477,6.8174,6.8272,6.8244,6.8388,6.8392,6.8511,6.8562,6.8545,6.8653,6.8582,6.8627,6.855,6.87,6.8739,6.8483,6.8482,6.8481,6.848,6.848,6.8335,6.8383,6.8418,6.8538,6.8628,6.8649,6.8754,6.8753,6.8753,6.8798,6.8837,6.8836,6.8833,6.8817,6.8817,6.8818,6.8819,6.8819,6.8819,6.8488,6.8525,6.8616,6.8697,6.8749,6.8817,6.8866,6.8916,6.897,6.8961,6.8961,6.8934,6.8715,6.8659,6.8829,6.8827,6.8826,6.8825,6.8825,6.8747,6.8688,6.8829,6.8881,6.8974,6.9062,6.906,6.916,6.92,6.9251,6.9215,6.9053,6.9038,6.902,6.8974,6.9215,6.9215,6.9215,6.9215,6.8882,6.8874,6.9017,6.91,6.918,6.9192,6.9345,6.9382,6.9411,6.9435,6.94,6.9338,6.932,6.9316,6.9292,6.9248,6.9554,6.9554,6.9554,6.904,6.904,6.9173,6.9204,6.9276,6.9336,6.9479,6.9571,6.9591,6.9568,6.9453,6.9439,6.934,6.9308,6.9282,6.9245,6.9165,0,0]}]]